Location: Artiguedieu
(43.5000°N, 0.5454°E)
Time: 12:38:23
(UTC+00:00)

Cosmos 1633 Rocket - Pass Details

Date: 06 December 2020
Orbit: 607 x 623 km, 82.5° (Epoch: 28 January)

Event Time Altitude Azimuth Distance (km) Brightness Sun altitude
Rises 06:00:53 0° 198° (SSW) 2,889 6.5 -13.2°
Reaches altitude 10° 06:03:09 10° 202° (SSW) 1,987 5.6 -12.9°
Maximum altitude 06:07:28 55° 281° (W) 747 3.1 -12.1°
Drops below altitude 10° 06:11:49 10° 360° (N) 1,995 5.5 -11.4°
Sets 06:14:05 0° 5° (N) 2,903 6.3 -11.0°
